User: anonymous   Login
Location: Newark
(55.5030°N, 22.7200°E)
Time: 05:49:47
(UTC+00:00)
Language:

Vanguard 2 - Orbit

View from above orbital plane
View from above orbital plane
View from above satellite
View from above satellite

Ground track
Ground track

The orbit data is extracted from the following two-line orbital elements,

1    11U 59001A   20157.87667518 +.00000007 +00000-0 -10990-4 0  9991
2    11 032.8699 098.8469 1468373 186.1476 171.9052 11.85695021273601
Epoch (UTC): 05 June 2020 21:02:24
Eccentricity: 0.1468373
inclination: 32.8699°
perigee height: 552 km
apogee height: 2938 km
right ascension of ascending node: 98.8469°
argument of perigee: 186.1476°
revolutions per day: 11.85695021
mean anomaly at epoch: 171.9052°
orbit number at epoch: 27360

The dashed part of the orbit path shows where the satellite is in the earth's shadow,  

DLR